Regional Weather Roundup
Issued by NWS Charleston, WV

Home | Current Version | Previous Version | Text Only | Print | Product List | Glossary Off
Versions: 1 2 3 4 5 6 7 8 9 10 11 12 13 14 15 16 17 18 19 20 21 22 23 24 25 26 27 28 29 30 31 32 33 34 35 36 37 38 39 40 41 42 43 44 45 46 47 48 49 50

000
ASUS41 KRLX 291210
RWRRLX
West Virginia Regional Weather Roundup
National Weather Service Charleston WV
800 AM EDT MON MAY 29 2017

Note: "fair" indicates few or no clouds below 12,000 feet with no
significant weather and/or obstructions to visibility.

WVZ003-291300-
Northern Panhandle of West Virginia

CITY           SKY/WX    TMP DP  RH WIND       PRES   REMARKS
WHEELING       PTSUNNY   61  58  90 SW7       29.89R
$$

WVZ009-291300-
Northwest West Virginia

CITY           SKY/WX    TMP DP  RH WIND       PRES   REMARKS
PARKERSBURG    MOSUNNY   65  61  87 W6        29.94R
$$

WVZ006-291300-
Western West Virginia

CITY           SKY/WX    TMP DP  RH WIND       PRES   REMARKS
HUNTINGTON     MOSUNNY   67  62  84 W6        29.95R
$$

WVZ015-291300-
West Central West Virginia

CITY           SKY/WX    TMP DP  RH WIND       PRES   REMARKS
CHARLESTON     CLOUDY    68  61  78 SW8       29.94R
$$

WVZ022-031-291300-
North Central West Virginia

CITY           SKY/WX    TMP DP  RH WIND       PRES   REMARKS
CLARKSBURG     CLOUDY    65  60  84 SW7       29.92R
MORGANTOWN     CLOUDY    63  60  90 S5        29.91R
$$

WVZ025-035-042-045-291300-
Southern West Virginia

CITY           SKY/WX    TMP DP  RH WIND       PRES   REMARKS
BECKLEY        MOSUNNY   63  59  87 W6        29.99R
LOGAN          CLOUDY    66  63  88 CALM      29.98R
BLUEFIELD      CLOUDY    61  57  87 W10       30.02R
LEWISBURG      CLOUDY    64  58  80 W7        29.98R
$$

WVZ047-291300-
Northern Mountains of West Virginia

CITY           SKY/WX    TMP DP  RH WIND       PRES   REMARKS
ELKINS         MOSUNNY   64  56  75 W8        29.96R
$$

WVZ052-291300-
Eastern Panhandle of West Virginia

CITY           SKY/WX    TMP DP  RH WIND       PRES   REMARKS
MARTINSBURG    CLOUDY    65  64  97 S6        29.84R FOG
PETERSBURG     MOSUNNY   67  65  91 CALM      29.89R
$$



USA.gov is the U.S. government's official web portal to all federal, state and local government web resources and services.